{"data":{"norad_id":35362,"epoch":"2026-09-19T20:33:15.185664Z","epoch_age_seconds":73735,"freshness":"FRESH","line1":"1 35362U 09032A   26262.85642576 -.00000115  00000+0  00000+0 0  9990","line2":"2 35362   0.0416 348.0669 0001972 198.8350 280.1768  1.00271576  8987","mean_motion":1.00271576,"eccentricity":0.0001972,"inclination_deg":0.0416,"raan_deg":348.0669,"arg_perigee_deg":198.835,"mean_anomaly_deg":280.1768,"bstar":0,"rev_number":898,"period_min":1436.0998973428,"perigee_km":35778.338654883,"apogee_km":35794.968448276,"semimajor_km":42164.790551579,"source":"CELESTRAK","updated_at":"2026-09-20T09:00:35.157862Z"}}